Terug naar catalogus

THORAD AGENA D DEB

ActiefPO
NORAD 19238·DEBRIS·🇺🇸 United States

Gelanceerd Apr 8, 1970 vanaf Vandenberg Space Force Base

Loading…

Volgende Passages (komende 24 uur)

TLE

VersSource: Space-Track

Epoch: Sep 14, 2026, 11:56 UTC

1 19238U 70025PT  26257.49761376  .00000953  00000-0  95136-3 0  9996
2 19238  99.8692  94.9839 0041068 218.5763 171.0935 13.80449155952395

Volg THORAD AGENA D DEB in realtime met AllMySat

Download on the App Store